User: anonymous   Login
Location: İstanbul
(41.0082°N, 28.9784°E)
Time: 07:39:54
(UTC+03:00)
Language:

CUBESAT XI-V - Orbit

View from above orbital plane
View from above orbital plane
View from above satellite
View from above satellite

Ground track
Ground track

The orbit data is extracted from the following two-line orbital elements,

1 28895U 05043F   24106.85372341  .00003977  00000-0  71308-3 0  9998
2 28895  98.1916 242.6447 0015915 190.2724 169.8157 14.67249879985548
Epoch (UTC): 15 April 2024 20:29:21
Eccentricity: 0.0015915
inclination: 98.1916°
perigee height: 658 km
apogee height: 681 km
right ascension of ascending node: 242.6447°
argument of perigee: 190.2724°
revolutions per day: 14.67249879
mean anomaly at epoch: 169.8157°
orbit number at epoch: 98554

The dashed part of the orbit path shows where the satellite is in the earth's shadow,  

DLR